Theta_e
352 358 359 353 349 358 352 354 350 348 354 353 351 349 350 351 353 353 352 355 352 349 352 354 360 361 361 360 361 361 361 359 358 356 358 358 358 359 359 358 358 357 357
356 353 361 359 356 357 351 354 351 349 350 349 351 351 351 353 355 355 350 350 353 353 353 348 353 360 361 361 363 362 361 361 361 359 361 360 359 359 359 358 357 358 358
357 364 359 357 354 357 359 357 355 353 352 350 349 353 354 353 351 351 352 349 352 354 350 352 356 358 361 358 360 361 362 362 362 362 362 361 360 360 360 359 359 359 359
361 362 356 354 353 355 354 355 355 354 350 350 350 348 350 353 352 348 348 350 349 349 353 353 352 356 357 358 357 360 361 361 361 362 362 362 361 361 361 361 361 360 360
362 359 356 354 359 355 353 351 357 354 349 349 349 350 350 350 351 350 347 350 350 348 348 353 357 355 355 358 359 360 362 361 361 361 361 362 362 361 361 361 361 360 360
362 361 355 356 356 359 353 356 354 354 352 349 351 348 347 347 348 349 349 350 348 348 348 347 350 351 352 353 358 360 361 362 362 362 361 360 361 362 361 360 361 361 360
365 358 355 355 357 356 354 359 358 356 353 352 344 344 345 347 348 347 349 349 348 346 346 349 348 349 350 352 356 358 360 364 364 362 359 359 359 360 360 360 360 361 361
367 360 359 358 360 358 358 357 356 352 349 351 343 345 337 343 351 348 348 348 348 348 349 351 347 345 345 345 348 356 356 359 364 360 360 359 358 359 359 359 359 359 359
364 362 360 359 360 361 358 360 359 351 348 351 350 343 337 334 341 344 345 349 347 350 350 350 350 349 346 346 348 352 356 356 360 358 360 359 359 359 360 360 359 359 358
363 358 353 353 358 360 358 356 356 354 355 346 352 349 350 345 336 335 344 343 347 347 346 347 349 350 347 345 346 349 350 351 356 359 360 360 359 359 360 359 360 359 358
360 356 352 356 360 362 361 360 358 358 356 350 349 347 345 344 344 337 333 340 345 345 345 349 349 348 348 349 347 349 352 353 351 355 357 359 359 362 362 362 362 361 360
361 360 359 362 360 364 362 361 358 358 353 352 355 351 345 342 341 340 337 339 338 342 342 343 344 347 348 347 352 354 353 351 351 352 355 355 357 358 359 361 363 363 362
354 358 362 363 360 363 362 361 359 359 358 357 356 351 350 349 348 344 340 338 337 342 341 344 346 347 348 346 348 353 352 350 351 353 351 351 350 351 352 355 358 360 361
354 358 359 360 359 359 359 357 357 353 352 353 352 352 351 350 351 348 340 337 334 336 340 340 346 347 346 347 348 350 347 346 349 351 349 346 346 347 348 350 353 356 357
360 360 356 359 358 356 358 362 355 354 354 352 349 348 348 348 350 347 345 342 336 329 331 337 339 348 346 347 347 347 346 345 347 348 346 343 343 342 344 346 348 350 350
359 358 358 358 357 353 355 358 353 353 349 348 347 346 345 347 346 346 340 343 341 336 329 337 338 342 345 346 347 344 343 344 343 342 340 341 340 338 338 341 341 341 343
358 361 357 355 353 353 355 355 354 348 346 345 344 342 341 341 337 337 335 331 329 327 332 335 338 340 339 339 340 341 344 339 341 339 339 339 338 337 337 337 337 337 337
356 358 359 354 352 350 351 348 346 342 341 339 339 338 336 334 336 333 327 323 322 322 328 326 330 329 336 337 336 336 340 345 341 342 339 339 338 335 335 335 334 334 334
358 354 354 350 349 349 349 347 344 343 342 339 336 333 331 331 328 328 329 325 323 320 320 320 319 321 325 324 323 324 325 331 340 339 337 336 337 335 334 334 332 330 328
352 350 348 346 350 349 345 340 337 336 338 335 331 325 322 321 321 320 320 319 320 320 321 318 317 317 318 318 315 316 316 325 322 324 328 334 337 336 334 331 331 330 326
349 349 347 346 345 328 323 329 336 332 331 329 330 323 322 321 321 321 317 318 320 317 316 315 315 317 315 317 316 318 315 318 321 322 321 322 323 326 324 330 333 333 330
348 347 344 342 333 318 323 326 327 329 328 328 328 328 323 321 321 319 320 322 320 319 317 315 313 312 315 318 318 318 316 315 313 321 319 317 320 318 319 321 330 332 331
345 343 340 339 332 325 321 323 326 325 328 326 326 325 322 319 325 320 319 320 322 323 321 319 316 316 317 318 318 315 314 314 314 319 319 315 318 316 318 320 323 330 332
342 340 337 335 334 322 320 321 323 324 327 326 326 325 324 324 319 318 316 316 316 317 317 317 317 318 319 320 317 314 314 313 313 314 316 310 316 315 319 319 324 324 324
337 335 335 335 335 326 322 321 322 322 322 327 328 328 326 325 315 312 316 314 314 314 317 320 320 319 318 318 317 313 310 309 309 311 316 315 317 316 318 320 323 326 323
336 333 333 335 319 331 320 320 320 319 317 319 323 325 322 315 314 312 314 313 310 311 315 312 312 313 316 316 320 316 313 309 310 310 315 312 311 313 311 317 321 322 322
Wind_Speed
5 4 3 2 4 2 1 3 3 4 3 6 12 9 10 7 4 1 3 15 12 12 10 12 14 16 16 16 16 16 16 15 14 13 13 14 11 10 10 9 8 7 7
3 3 2 1 4 4 4 3 3 3 4 5 6 7 6 2 1 2 4 9 18 18 19 18 17 18 19 19 17 17 17 16 14 15 14 12 12 11 10 10 10 8 7
3 2 1 3 5 5 5 5 3 3 3 4 6 6 5 5 5 6 4 4 9 20 22 20 17 18 19 19 19 20 18 17 17 16 15 14 13 12 11 11 10 9 8
6 4 3 3 4 5 5 4 3 3 4 5 4 4 4 5 6 3 5 5 6 7 13 19 17 19 20 21 22 22 19 19 19 18 15 15 15 14 13 12 11 10 9
9 6 4 5 5 3 3 5 3 2 4 4 5 5 4 4 4 7 7 8 7 7 5 15 22 20 19 23 22 24 22 20 20 19 18 17 16 15 14 13 12 11 11
7 4 3 5 5 3 5 6 6 4 4 3 2 4 5 6 6 5 8 9 7 9 8 9 7 7 13 22 23 24 23 21 22 19 18 16 17 16 15 14 13 13 12
6 4 5 8 7 5 7 5 5 4 5 4 2 3 6 8 9 6 7 8 8 10 9 8 5 5 7 23 21 24 24 23 21 19 18 17 16 16 16 15 14 14 13
6 7 8 7 6 5 5 5 4 3 5 3 3 2 3 2 1 5 6 6 7 4 6 8 9 10 11 11 9 23 24 23 21 19 17 17 18 17 17 15 14 15 14
6 7 9 6 6 4 4 5 5 5 4 3 7 3 2 3 2 0 2 2 3 3 4 6 7 11 12 5 18 20 20 18 18 19 17 17 17 17 17 17 16 16 15
6 8 4 8 7 5 6 6 3 4 3 5 2 6 4 0 2 3 2 2 2 2 3 4 5 5 11 9 17 18 13 14 16 17 17 16 15 16 17 17 17 17 16
5 3 5 10 5 4 4 5 4 5 4 5 3 2 2 4 4 5 3 1 1 1 2 2 3 1 4 3 10 17 12 16 21 19 16 15 16 17 18 18 18 18 18
3 3 1 3 5 4 3 3 4 4 4 3 2 2 3 2 1 2 3 3 1 2 0 1 1 2 2 3 7 9 18 21 25 19 13 13 11 12 12 17 18 18 18
4 4 3 3 4 5 3 3 4 3 3 1 2 3 3 2 2 2 2 3 1 1 0 1 1 1 2 1 6 10 12 15 11 10 9 9 8 7 7 9 10 13 16
4 4 3 4 4 6 4 4 3 3 4 3 4 3 2 3 2 2 2 2 2 3 1 2 2 3 4 5 2 5 5 9 11 11 12 10 9 8 8 8 8 8 8
5 4 4 4 5 6 5 2 3 3 2 2 6 5 4 4 4 4 3 2 0 2 2 2 2 2 3 4 5 4 1 3 10 12 10 11 10 9 7 6 7 8 9
4 2 3 4 5 5 5 4 5 6 7 5 6 7 6 3 4 4 6 5 4 0 1 2 1 3 2 2 3 3 2 3 13 10 12 12 11 11 10 9 8 8 9
4 3 6 7 5 4 5 5 5 8 7 7 7 7 7 6 5 5 6 5 5 4 3 2 3 3 2 3 4 3 2 7 4 10 5 5 9 9 8 9 10 10 10
5 2 2 6 5 5 5 6 6 6 7 8 8 8 8 6 5 5 5 6 5 4 3 3 4 5 4 5 5 5 3 1 4 3 8 11 10 9 10 12 11 11 11
3 4 4 4 5 5 4 5 5 4 4 4 5 7 8 8 8 6 4 3 3 2 2 2 1 1 2 2 3 3 4 4 3 5 11 12 12 13 15 12 14 14 13
7 7 7 5 3 3 5 4 4 4 5 6 8 9 7 6 6 7 8 8 7 6 1 1 1 2 2 2 2 3 5 1 3 6 9 11 8 10 14 16 16 16 15
6 5 3 3 5 8 7 7 6 6 6 5 6 6 6 6 9 9 6 6 6 6 6 6 4 2 3 2 3 3 4 4 3 3 4 5 4 5 6 11 17 16 14
4 3 3 3 9 7 9 10 10 4 3 3 3 4 6 7 6 7 6 9 6 4 4 3 4 6 6 4 4 5 5 6 5 3 3 5 4 7 5 6 7 10 13
5 4 5 5 8 6 6 9 12 8 4 4 2 4 4 5 7 5 6 9 9 4 10 5 5 5 6 4 4 4 5 7 8 6 7 7 5 9 8 9 14 8 10
4 4 4 4 6 5 5 9 12 7 8 5 5 3 3 5 4 4 3 3 4 6 7 6 6 6 5 4 3 4 5 7 8 8 8 11 9 10 9 8 15 16 13
4 3 3 1 2 5 4 3 6 8 8 4 6 6 6 4 8 4 3 4 5 6 9 10 5 9 12 13 14 6 7 7 8 7 4 6 7 9 9 5 5 10 12
3 3 3 2 4 5 6 3 2 5 8 8 8 7 10 11 8 3 3 5 6 6 5 7 9 12 12 12 18 12 8 8 8 6 5 7 7 7 6 5 4 4 4
Wind_Direction
215 233 205 244 292 291 258 266 300 268 263 198 194 224 239 233 167 196 71 125 135 158 259 290 253 226 226 227 221 217 214 209 204 205 207 201 203 213 213 212 228 211 220
215 237 125 296 292 267 262 233 247 252 256 271 260 245 221 151 83 97 147 150 166 180 221 242 263 250 237 228 228 220 221 212 208 209 207 208 205 208 219 216 217 223 221
255 350 271 270 274 296 309 280 236 284 280 268 267 248 227 169 190 200 197 167 183 196 209 226 238 250 245 240 236 230 223 213 213 211 212 207 210 209 213 219 219 221 222
226 225 246 240 253 273 273 281 268 262 292 264 256 270 285 196 181 203 219 209 187 205 219 223 237 245 249 244 242 233 227 221 212 210 206 216 213 210 213 218 222 222 225
210 207 214 241 218 243 290 277 267 229 273 292 310 327 338 295 227 233 232 230 206 221 211 219 220 222 246 246 240 235 228 222 212 210 208 206 213 213 213 216 221 220 225
212 183 217 258 278 203 232 229 243 233 220 245 249 284 284 260 258 221 235 254 213 227 207 216 204 208 249 272 250 234 229 221 214 209 206 210 209 215 214 215 217 220 218
192 189 254 258 245 236 235 233 243 234 245 199 186 258 254 250 247 228 220 242 233 232 236 210 161 149 229 252 256 235 228 218 215 210 210 210 211 215 216 216 215 218 217
218 204 239 254 239 254 246 255 263 238 251 174 208 207 271 298 303 222 210 233 248 226 250 237 177 189 199 235 255 251 226 224 213 206 212 212 215 214 216 215 214 216 218
267 256 258 249 282 257 255 253 248 243 258 204 205 225 291 230 311 273 307 267 261 244 248 260 240 194 193 200 228 233 217 223 213 206 212 215 208 211 214 214 215 215 216
265 291 353 292 268 265 251 266 246 247 249 268 170 237 263 140 272 319 208 219 265 299 331 291 237 270 180 177 193 231 215 250 238 216 215 219 219 215 217 217 218 217 214
39 3 173 241 279 276 260 240 275 248 245 272 256 273 214 219 215 235 292 288 267 279 290 3 22 354 328 92 206 209 157 263 247 227 218 224 231 229 223 221 217 216 216
120 253 2 312 309 302 315 332 310 321 322 303 279 211 247 292 268 239 245 266 6 307 302 15 71 93 269 25 304 166 150 159 238 213 206 211 209 223 226 225 219 216 218
168 203 229 298 322 332 311 290 332 347 317 341 306 276 208 228 266 279 282 286 240 315 346 48 267 15 40 0 319 188 178 182 189 181 173 185 189 195 231 253 243 229 227
106 72 27 6 13 6 11 27 28 7 21 18 351 6 344 332 310 287 265 310 285 224 265 122 19 125 78 77 193 151 155 186 180 185 175 192 207 208 207 217 238 250 250
101 76 63 71 63 33 350 17 99 68 61 68 57 34 21 356 12 5 349 11 186 316 216 150 137 55 133 115 117 110 112 237 189 183 191 199 197 195 210 221 219 227 240
75 194 152 117 120 79 9 7 65 50 60 36 65 61 51 20 34 32 36 17 21 210 300 32 345 113 59 55 132 125 90 328 264 207 202 201 206 199 201 215 228 234 239
114 88 63 68 57 54 37 20 64 57 51 56 55 69 67 37 30 27 37 38 38 26 6 55 51 62 82 21 36 358 194 198 255 230 240 250 240 216 204 218 230 236 239
118 134 112 106 79 63 44 38 39 49 64 53 47 41 33 29 53 42 58 47 42 21 12 49 22 3 32 17 15 349 352 280 300 285 249 251 244 245 230 227 230 230 233
115 113 95 82 100 81 65 65 46 67 65 73 64 60 44 30 23 10 62 64 60 67 58 51 342 28 320 6 344 340 335 320 294 267 221 234 238 238 243 225 221 231 229
69 61 48 17 38 133 77 32 5 14 18 69 78 72 59 42 37 4 42 10 12 342 139 168 247 286 296 335 317 296 309 290 298 310 316 296 241 247 256 252 239 231 223
80 86 80 24 323 63 39 16 13 37 35 49 77 122 104 97 70 52 36 1 3 350 348 350 331 205 174 229 226 233 234 262 270 236 281 279 281 272 247 250 261 252 236
94 104 122 57 53 54 25 14 11 25 98 15 19 119 136 135 118 94 46 342 303 307 324 331 320 334 315 353 347 360 335 324 316 316 324 307 316 306 300 291 288 252 226
85 50 44 27 107 89 20 11 9 339 36 48 38 348 351 99 112 75 27 342 342 304 244 276 281 285 301 331 331 332 324 320 301 314 320 292 298 293 288 293 302 273 237
86 77 67 22 111 100 55 6 357 319 307 164 208 208 238 126 103 104 45 341 340 319 308 296 259 270 285 324 305 269 265 272 276 275 259 269 266 264 268 265 264 269 258
102 109 101 117 70 119 112 359 341 315 307 244 215 202 214 167 133 98 358 325 303 296 296 314 333 316 294 279 267 276 270 276 283 281 274 270 268 253 248 235 262 265 255
82 337 145 167 98 119 153 125 1 316 328 342 340 37 54 107 128 161 265 277 292 294 319 321 299 290 279 267 260 249 251 256 279 309 299 345 334 349 324 294 290 288 295